Time,TemperatureF,DewpointF,PressureIn,WindDirection,WindDirectionDegrees,WindSpeedMPH,WindSpeedGustMPH,Humidity,HourlyPrecipIn,Conditions,Clouds,dailyrainin,SoftwareType,DateUTC
2013-03-20 00:02:00,59.0,36.0,30.13,NE,52,3.0,12.0,42,0.00,,,0.00,,2013-03-20 05:02:00,
2013-03-20 00:12:00,59.0,37.0,30.13,NE,53,3.0,9.0,43,0.00,,,0.00,,2013-03-20 05:12:00,
2013-03-20 00:22:00,59.0,37.0,30.13,NE,53,3.0,9.0,43,0.00,,,0.00,,2013-03-20 05:22:00,
2013-03-20 00:32:00,59.0,37.0,30.13,NE,53,3.0,9.0,43,0.00,,,0.00,,2013-03-20 05:32:00,
2013-03-20 00:42:00,59.0,37.0,30.13,NE,53,3.0,9.0,43,0.00,,,0.00,,2013-03-20 05:42:00,
2013-03-20 00:52:00,58.0,36.0,30.13,ENE,59,3.0,10.0,43,0.00,,,0.00,,2013-03-20 05:52:00,
2013-03-20 01:02:00,58.0,36.0,30.14,ENE,58,2.0,12.0,44,0.00,,,0.00,,2013-03-20 06:02:00,
2013-03-20 01:12:00,58.0,36.0,30.14,ENE,58,2.0,12.0,44,0.00,,,0.00,,2013-03-20 06:12:00,
2013-03-20 01:22:00,57.0,36.0,30.14,NE,56,1.0,6.0,45,0.00,,,0.00,,2013-03-20 06:22:00,
2013-03-20 01:32:00,57.0,36.0,30.16,ENE,63,0.0,3.0,46,0.00,,,0.00,,2013-03-20 06:32:00,
2013-03-20 01:42:00,57.0,36.0,30.16,ENE,63,0.0,3.0,46,0.00,,,0.00,,2013-03-20 06:42:00,
2013-03-20 02:02:00,56.0,36.0,30.17,ENE,60,1.0,3.0,47,0.00,,,0.00,,2013-03-20 07:02:00,
2013-03-20 02:12:00,56.0,36.0,30.17,ENE,60,1.0,3.0,47,0.00,,,0.00,,2013-03-20 07:12:00,
2013-03-20 02:22:00,55.0,35.0,30.17,ENE,57,0.0,2.0,47,0.00,,,0.00,,2013-03-20 07:22:00,
2013-03-20 02:32:00,54.0,35.0,30.17,NE,53,1.0,6.0,49,0.00,,,0.00,,2013-03-20 07:32:00,
2013-03-20 02:42:00,54.0,35.0,30.17,NE,53,1.0,6.0,49,0.00,,,0.00,,2013-03-20 07:42:00,
2013-03-20 02:52:00,54.0,35.0,30.19,NE,46,2.0,7.0,49,0.00,,,0.00,,2013-03-20 07:52:00,
2013-03-20 03:02:00,54.0,36.0,30.19,NE,52,2.0,8.0,50,0.00,,,0.00,,2013-03-20 08:02:00,
2013-03-20 03:12:00,54.0,36.0,30.19,NE,52,2.0,8.0,50,0.00,,,0.00,,2013-03-20 08:12:00,
2013-03-20 03:22:00,54.0,36.0,30.20,NE,55,1.0,5.0,51,0.00,,,0.00,,2013-03-20 08:22:00,
2013-03-20 03:32:00,54.0,37.0,30.21,ENE,63,3.0,7.0,52,0.00,,,0.00,,2013-03-20 08:32:00,
2013-03-20 03:42:00,54.0,37.0,30.21,ENE,63,3.0,7.0,52,0.00,,,0.00,,2013-03-20 08:42:00,
2013-03-20 03:51:00,54.0,37.0,30.20,NE,51,2.0,9.0,52,0.00,,,0.00,,2013-03-20 08:51:00,
2013-03-20 04:02:00,53.0,36.0,30.20,ENE,60,3.0,7.0,53,0.00,,,0.00,,2013-03-20 09:02:00,
2013-03-20 04:12:00,53.0,36.0,30.20,ENE,60,3.0,7.0,53,0.00,,,0.00,,2013-03-20 09:12:00,
2013-03-20 04:22:00,53.0,36.0,30.19,NE,55,3.0,9.0,53,0.00,,,0.00,,2013-03-20 09:22:00,
2013-03-20 04:32:00,52.0,36.0,30.19,NE,48,2.0,7.0,55,0.00,,,0.00,,2013-03-20 09:32:00,
2013-03-20 04:43:00,52.0,36.0,30.19,NE,48,2.0,7.0,55,0.00,,,0.00,,2013-03-20 09:43:00,
2013-03-20 04:52:00,52.0,36.0,30.20,NE,53,2.0,7.0,55,0.00,,,0.00,,2013-03-20 09:52:00,
2013-03-20 05:03:00,51.0,36.0,30.20,NE,48,1.0,6.0,57,0.00,,,0.00,,2013-03-20 10:03:00,
2013-03-20 05:12:00,51.0,36.0,30.20,NE,48,1.0,6.0,57,0.00,,,0.00,,2013-03-20 10:12:00,
2013-03-20 05:23:00,51.0,36.0,30.20,ENE,58,2.0,7.0,57,0.00,,,0.00,,2013-03-20 10:23:00,
2013-03-20 05:32:00,50.0,36.0,30.21,NE,40,2.0,7.0,59,0.00,,,0.00,,2013-03-20 10:32:00,
2013-03-20 05:42:00,50.0,36.0,30.21,NE,40,2.0,7.0,59,0.00,,,0.00,,2013-03-20 10:42:00,
2013-03-20 05:52:00,50.0,36.0,30.21,NE,48,2.0,9.0,59,0.00,,,0.00,,2013-03-20 10:52:00,
2013-03-20 06:03:00,50.0,36.0,30.21,ENE,67,2.0,5.0,59,0.00,,,0.00,,2013-03-20 11:03:00,
2013-03-20 06:12:00,50.0,36.0,30.21,ENE,67,2.0,5.0,59,0.00,,,0.00,,2013-03-20 11:12:00,
2013-03-20 06:22:00,50.0,36.0,30.22,NE,48,2.0,6.0,59,0.00,,,0.00,,2013-03-20 11:22:00,
2013-03-20 06:32:00,50.0,36.0,30.22,NE,55,2.0,9.0,59,0.00,,,0.00,,2013-03-20 11:32:00,
2013-03-20 06:42:00,50.0,36.0,30.22,NE,55,2.0,9.0,59,0.00,,,0.00,,2013-03-20 11:42:00,
2013-03-20 06:52:00,50.0,37.0,30.23,NE,55,2.0,5.0,60,0.00,,,0.00,,2013-03-20 11:52:00,
2013-03-20 07:02:00,49.0,36.0,30.24,ENE,63,0.0,3.0,60,0.00,,,0.00,,2013-03-20 12:02:00,
2013-03-20 07:12:00,49.0,36.0,30.24,ENE,63,0.0,3.0,60,0.00,,,0.00,,2013-03-20 12:12:00,
2013-03-20 07:22:00,49.0,36.0,30.24,ENE,62,0.0,3.0,61,0.00,,,0.00,,2013-03-20 12:22:00,
2013-03-20 07:32:00,48.0,36.0,30.24,WNW,291,0.0,3.0,62,0.00,,,0.00,,2013-03-20 12:32:00,
2013-03-20 07:42:00,48.0,36.0,30.24,WNW,291,0.0,3.0,62,0.00,,,0.00,,2013-03-20 12:42:00,
2013-03-20 07:52:00,48.0,36.0,30.24,WNW,291,0.0,2.0,63,0.00,,,0.00,,2013-03-20 12:52:00,
2013-03-20 08:03:00,47.0,36.0,30.29,WNW,291,0.0,1.0,65,0.00,,,0.00,,2013-03-20 13:03:00,
2013-03-20 08:12:00,47.0,36.0,30.29,WNW,291,0.0,1.0,65,0.00,,,0.00,,2013-03-20 13:12:00,
2013-03-20 08:22:00,47.0,36.0,30.29,WNW,291,0.0,1.0,66,0.00,,,0.00,,2013-03-20 13:22:00,
2013-03-20 08:32:00,46.0,36.0,30.29,NW,315,0.0,3.0,68,0.00,,,0.00,,2013-03-20 13:32:00,
2013-03-20 08:42:00,46.0,36.0,30.29,NW,315,0.0,3.0,68,0.00,,,0.00,,2013-03-20 13:42:00,
2013-03-20 08:53:00,47.0,37.0,30.29,NE,53,1.0,5.0,67,0.00,,,0.00,,2013-03-20 13:53:00,
2013-03-20 09:02:00,50.0,37.0,30.31,NE,38,2.0,6.0,60,0.00,,,0.00,,2013-03-20 14:02:00,
2013-03-20 09:12:00,50.0,37.0,30.31,NE,38,2.0,6.0,60,0.00,,,0.00,,2013-03-20 14:12:00,
2013-03-20 09:23:00,51.0,37.0,30.32,NE,45,1.0,5.0,59,0.00,,,0.00,,2013-03-20 14:23:00,
2013-03-20 09:33:00,52.0,37.0,30.32,ENE,58,2.0,6.0,57,0.00,,,0.00,,2013-03-20 14:33:00,
2013-03-20 09:42:00,52.0,37.0,30.32,ENE,58,2.0,6.0,57,0.00,,,0.00,,2013-03-20 14:42:00,
2013-03-20 09:52:00,52.0,37.0,30.32,NE,36,1.0,10.0,56,0.00,,,0.00,,2013-03-20 14:52:00,
2013-03-20 10:02:00,54.0,38.0,30.33,NE,53,1.0,3.0,54,0.00,,,0.00,,2013-03-20 15:02:00,
2013-03-20 10:12:00,54.0,37.0,30.33,NE,56,1.0,5.0,53,0.00,,,0.00,,2013-03-20 15:12:00,
2013-03-20 10:22:00,54.0,37.0,30.33,NE,56,1.0,5.0,53,0.00,,,0.00,,2013-03-20 15:22:00,
2013-03-20 10:33:00,55.0,37.0,30.33,ENE,60,1.0,3.0,50,0.00,,,0.00,,2013-03-20 15:33:00,
2013-03-20 10:43:00,55.0,37.0,30.33,ENE,60,1.0,3.0,50,0.00,,,0.00,,2013-03-20 15:43:00,
2013-03-20 10:52:00,57.0,38.0,30.33,ESE,109,1.0,5.0,48,0.00,,,0.00,,2013-03-20 15:52:00,
2013-03-20 11:03:00,59.0,38.0,30.33,East,86,1.0,3.0,45,0.00,,,0.00,,2013-03-20 16:03:00,
2013-03-20 11:12:00,59.0,38.0,30.33,East,86,1.0,3.0,45,0.00,,,0.00,,2013-03-20 16:12:00,
2013-03-20 11:23:00,60.0,39.0,30.33,NE,48,1.0,5.0,45,0.00,,,0.00,,2013-03-20 16:23:00,
2013-03-20 11:32:00,62.0,39.0,30.33,NE,56,2.0,5.0,42,0.00,,,0.00,,2013-03-20 16:32:00,
2013-03-20 11:42:00,62.0,39.0,30.33,NE,56,2.0,5.0,42,0.00,,,0.00,,2013-03-20 16:42:00,
2013-03-20 11:52:00,63.0,40.0,30.33,East,82,2.0,7.0,42,0.00,,,0.00,,2013-03-20 16:52:00,
2013-03-20 12:03:00,64.0,38.0,30.32,NE,47,2.0,9.0,38,0.00,,,0.00,,2013-03-20 17:03:00,
2013-03-20 12:12:00,64.0,38.0,30.32,NE,47,2.0,9.0,38,0.00,,,0.00,,2013-03-20 17:12:00,
2013-03-20 12:22:00,65.0,39.0,30.32,NNE,13,3.0,9.0,38,0.00,,,0.00,,2013-03-20 17:22:00,
2013-03-20 12:32:00,65.0,34.0,30.32,NE,48,5.0,16.0,31,0.00,,,0.00,,2013-03-20 17:32:00,
2013-03-20 12:42:00,65.0,34.0,30.32,NE,48,5.0,16.0,31,0.00,,,0.00,,2013-03-20 17:42:00,
2013-03-20 12:52:00,66.0,35.0,30.31,ENE,62,2.0,12.0,32,0.00,,,0.00,,2013-03-20 17:52:00,
2013-03-20 13:02:00,66.0,34.0,30.31,NE,50,2.0,10.0,30,0.00,,,0.00,,2013-03-20 18:02:00,
2013-03-20 13:12:00,66.0,34.0,30.31,NE,50,2.0,10.0,30,0.00,,,0.00,,2013-03-20 18:12:00,
2013-03-20 13:22:00,66.0,31.0,30.31,NE,42,5.0,16.0,27,0.00,,,0.00,,2013-03-20 18:22:00,
2013-03-20 13:33:00,67.0,32.0,30.30,ENE,70,2.0,9.0,27,0.00,,,0.00,,2013-03-20 18:33:00,
2013-03-20 13:42:00,67.0,32.0,30.30,ENE,70,2.0,9.0,27,0.00,,,0.00,,2013-03-20 18:42:00,
2013-03-20 13:52:00,67.0,32.0,30.30,East,87,5.0,13.0,27,0.00,,,0.00,,2013-03-20 18:52:00,
2013-03-20 14:02:00,67.0,33.0,30.29,NE,41,1.0,13.0,28,0.00,,,0.00,,2013-03-20 19:02:00,
2013-03-20 14:12:00,67.0,33.0,30.29,NE,41,1.0,13.0,28,0.00,,,0.00,,2013-03-20 19:12:00,
2013-03-20 14:22:00,67.0,33.0,30.28,ENE,76,3.0,12.0,28,0.00,,,0.00,,2013-03-20 19:22:00,
2013-03-20 14:32:00,67.0,33.0,30.26,NE,56,3.0,12.0,28,0.00,,,0.00,,2013-03-20 19:32:00,
2013-03-20 14:42:00,67.0,33.0,30.26,NE,56,3.0,12.0,28,0.00,,,0.00,,2013-03-20 19:42:00,
2013-03-20 14:53:00,67.0,33.0,30.26,NE,46,2.0,12.0,28,0.00,,,0.00,,2013-03-20 19:53:00,
2013-03-20 15:02:00,66.0,33.0,30.24,ENE,70,1.0,6.0,29,0.00,,,0.00,,2013-03-20 20:02:00,
2013-03-20 15:13:00,66.0,33.0,30.24,ENE,70,1.0,6.0,29,0.00,,,0.00,,2013-03-20 20:13:00,
2013-03-20 15:22:00,66.0,33.0,30.24,NNW,339,3.0,12.0,29,0.00,,,0.00,,2013-03-20 20:22:00,
2013-03-20 15:32:00,66.0,33.0,30.24,NNW,339,3.0,12.0,29,0.00,,,0.00,,2013-03-20 20:32:00,
2013-03-20 15:42:00,66.0,33.0,30.24,NNW,339,3.0,12.0,29,0.00,,,0.00,,2013-03-20 20:42:00,
2013-03-20 15:52:00,66.0,33.0,30.22,ENE,71,3.0,7.0,29,0.00,,,0.00,,2013-03-20 20:52:00,
2013-03-20 16:02:00,66.0,33.0,30.21,NE,47,3.0,12.0,29,0.00,,,0.00,,2013-03-20 21:02:00,
2013-03-20 16:12:00,66.0,33.0,30.21,NE,47,3.0,12.0,29,0.00,,,0.00,,2013-03-20 21:12:00,
2013-03-20 16:22:00,66.0,33.0,30.21,NE,47,3.0,12.0,29,0.00,,,0.00,,2013-03-20 21:22:00,
2013-03-20 16:33:00,66.0,33.0,30.19,SE,138,0.0,5.0,29,0.00,,,0.00,,2013-03-20 21:33:00,
2013-03-20 16:42:00,66.0,33.0,30.19,SE,138,0.0,5.0,29,0.00,,,0.00,,2013-03-20 21:42:00,
2013-03-20 16:52:00,66.0,33.0,30.19,NE,37,1.0,6.0,29,0.00,,,0.00,,2013-03-20 21:52:00,
2013-03-20 17:03:00,66.0,32.0,30.18,ENE,65,3.0,7.0,28,0.00,,,0.00,,2013-03-20 22:03:00,
2013-03-20 17:12:00,66.0,32.0,30.18,ENE,65,3.0,7.0,28,0.00,,,0.00,,2013-03-20 22:12:00,
2013-03-20 17:23:00,66.0,33.0,30.18,ENE,73,2.0,8.0,29,0.00,,,0.00,,2013-03-20 22:23:00,
2013-03-20 17:32:00,66.0,31.0,30.16,SE,138,3.0,6.0,27,0.00,,,0.00,,2013-03-20 22:32:00,
2013-03-20 17:42:00,66.0,31.0,30.16,SE,138,3.0,6.0,27,0.00,,,0.00,,2013-03-20 22:42:00,
2013-03-20 17:52:00,66.0,33.0,30.16,East,99,2.0,6.0,29,0.00,,,0.00,,2013-03-20 22:52:00,
2013-03-20 18:02:00,66.0,33.0,30.16,ENE,57,1.0,6.0,29,0.00,,,0.00,,2013-03-20 23:02:00,
2013-03-20 18:12:00,66.0,33.0,30.16,ENE,57,1.0,6.0,29,0.00,,,0.00,,2013-03-20 23:12:00,
2013-03-20 18:22:00,66.0,33.0,30.16,ENE,65,1.0,5.0,29,0.00,,,0.00,,2013-03-20 23:22:00,
2013-03-20 18:32:00,66.0,32.0,30.15,ENE,58,1.0,6.0,28,0.00,,,0.00,,2013-03-20 23:32:00,
2013-03-20 18:42:00,66.0,32.0,30.15,ENE,58,1.0,6.0,28,0.00,,,0.00,,2013-03-20 23:42:00,
2013-03-20 18:53:00,65.0,32.0,30.14,SE,143,2.0,9.0,29,0.00,,,0.00,,2013-03-20 23:53:00,
2013-03-20 19:02:00,65.0,33.0,30.13,SE,128,3.0,10.0,30,0.00,,,0.00,,2013-03-21 00:02:00,
2013-03-20 19:12:00,65.0,33.0,30.13,SE,128,3.0,10.0,30,0.00,,,0.00,,2013-03-21 00:12:00,
2013-03-20 19:22:00,64.0,32.0,30.13,SE,129,2.0,5.0,30,0.00,,,0.00,,2013-03-21 00:22:00,
2013-03-20 19:32:00,63.0,33.0,30.13,SE,137,1.0,5.0,32,0.00,,,0.00,,2013-03-21 00:32:00,
2013-03-20 19:42:00,63.0,33.0,30.13,SE,137,1.0,5.0,32,0.00,,,0.00,,2013-03-21 00:42:00,
2013-03-20 19:52:00,63.0,33.0,30.13,SE,126,0.0,2.0,32,0.00,,,0.00,,2013-03-21 00:52:00,
2013-03-20 20:02:00,62.0,32.0,30.12,SE,127,1.0,3.0,32,0.00,,,0.00,,2013-03-21 01:02:00,
2013-03-20 20:12:00,62.0,32.0,30.12,SE,127,1.0,3.0,32,0.00,,,0.00,,2013-03-21 01:12:00,
2013-03-20 20:22:00,61.0,32.0,30.12,SE,127,0.0,2.0,33,0.00,,,0.00,,2013-03-21 01:22:00,
2013-03-20 20:32:00,60.0,32.0,30.12,SE,127,0.0,1.0,34,0.00,,,0.00,,2013-03-21 01:32:00,
2013-03-20 20:42:00,60.0,32.0,30.12,SE,127,0.0,1.0,34,0.00,,,0.00,,2013-03-21 01:42:00,
2013-03-20 20:53:00,60.0,32.0,30.12,SE,127,0.0,1.0,35,0.00,,,0.00,,2013-03-21 01:53:00,
2013-03-20 21:02:00,59.0,33.0,30.12,SE,126,0.0,0.0,37,0.00,,,0.00,,2013-03-21 02:02:00,
2013-03-20 21:12:00,59.0,33.0,30.12,SE,126,0.0,0.0,37,0.00,,,0.00,,2013-03-21 02:12:00,
2013-03-20 21:22:00,59.0,33.0,30.12,SE,127,0.0,0.0,37,0.00,,,0.00,,2013-03-21 02:22:00,
2013-03-20 21:32:00,58.0,33.0,30.11,SE,127,0.0,0.0,39,0.00,,,0.00,,2013-03-21 02:32:00,
2013-03-20 21:42:00,58.0,33.0,30.11,SE,127,0.0,0.0,39,0.00,,,0.00,,2013-03-21 02:42:00,
2013-03-20 21:51:00,58.0,33.0,30.11,SE,127,0.0,0.0,39,0.00,,,0.00,,2013-03-21 02:51:00,
2013-03-20 22:02:00,56.0,33.0,30.10,SE,127,0.0,0.0,42,0.00,,,0.00,,2013-03-21 03:02:00,
2013-03-20 22:12:00,56.0,33.0,30.10,SE,127,0.0,0.0,42,0.00,,,0.00,,2013-03-21 03:12:00,
2013-03-20 22:22:00,56.0,33.0,30.10,SE,127,0.0,0.0,42,0.00,,,0.00,,2013-03-21 03:22:00,
2013-03-20 22:33:00,55.0,33.0,30.10,SE,127,0.0,0.0,44,0.00,,,0.00,,2013-03-21 03:33:00,
2013-03-20 22:43:00,55.0,33.0,30.10,SE,127,0.0,0.0,44,0.00,,,0.00,,2013-03-21 03:43:00,
2013-03-20 22:53:00,54.0,33.0,30.09,SE,127,0.0,0.0,45,0.00,,,0.00,,2013-03-21 03:53:00,
2013-03-20 23:03:00,53.0,33.0,30.09,SE,127,0.0,1.0,46,0.00,,,0.00,,2013-03-21 04:03:00,
2013-03-20 23:13:00,53.0,33.0,30.09,SE,127,0.0,1.0,46,0.00,,,0.00,,2013-03-21 04:13:00,
2013-03-20 23:23:00,53.0,33.0,30.09,SE,127,0.0,0.0,47,0.00,,,0.00,,2013-03-21 04:23:00,
2013-03-20 23:33:00,53.0,33.0,30.08,SE,127,0.0,0.0,47,0.00,,,0.00,,2013-03-21 04:33:00,
2013-03-20 23:43:00,53.0,33.0,30.08,SE,127,0.0,0.0,47,0.00,,,0.00,,2013-03-21 04:43:00,
2013-03-20 23:53:00,52.0,33.0,30.08,SE,127,0.0,0.0,48,0.00,,,0.00,,2013-03-21 04:53:00,